When you browse on this site, cookies collect data to enhance your experience and personalize the content and advertising you see.
Visit our Privacy Policy to learn more. By continuing to use the site, you agree to this use of cookies and data.
  • In Romania
  • List of Countries
  • For 7 days
  • Water Temperature
  • Weather Map
  • Weather Widgets
  • user-avatar
    Login

    Hourly Weather Valencia

    Today, 24 February, Monday

    Time Temperature Precipitation Wind Pressure Humidity
    00:00 +14°C° 0 mm 1 mps 771 mmHg 55%
    01:00 +14°C° 0 mm 1 mps 770 mmHg 53%
    02:00 +13°C° 0 mm 1 mps 769 mmHg 51%
    03:00 +13°C° 0 mm 1 mps 769 mmHg 49%
    04:00 +13°C° 0 mm 1 mps 769 mmHg 47%
    05:00 +13°C° 0 mm 1 mps 769 mmHg 46%
    06:00 +13°C° 0 mm 2 mps 769 mmHg 44%
    07:00 +15°C° 0 mm 2 mps 768 mmHg 41%
    08:00 +18°C° 0 mm 1 mps 768 mmHg 38%
    09:00 +20°C° 0 mm 1 mps 768 mmHg 35%
    10:00 +21°C° 0 mm 1 mps 768 mmHg 32%
    11:00 +23°C° 0 mm 2 mps 767 mmHg 30%
    12:00 +25°C° 0 mm 2 mps 767 mmHg 27%
    13:00 +25°C° 0 mm 2 mps 766 mmHg 27%
    14:00 +26°C° 0 mm 2 mps 765 mmHg 27%
    15:00 +26°C° 0 mm 2 mps 764 mmHg 27%
    16:00 +24°C° 0 mm 2 mps 764 mmHg 33%
    17:00 +20°C° 0 mm 2 mps 764 mmHg 40%
    18:00 +17°C° 0 mm 2 mps 764 mmHg 47%
    19:00 +17°C° 0 mm 2 mps 764 mmHg 47%
    20:00 +16°C° 0 mm 2 mps 764 mmHg 47%
    21:00 +16°C° 0 mm 2 mps 764 mmHg 47%
    22:00 +16°C° 0 mm 2 mps 764 mmHg 45%
    23:00 +15°C° 0 mm 2 mps 763 mmHg 43%

    Tomorrow, 25 February, Tuesday

    Time Temperature Precipitation Wind Pressure Humidity
    00:00 +15°C° 0 mm 2 mps 763 mmHg 41%
    01:00 +14°C° 0 mm 3 mps 763 mmHg 41%
    02:00 +14°C° 0 mm 3 mps 762 mmHg 41%
    03:00 +14°C° 0 mm 3 mps 762 mmHg 41%
    04:00 +13°C° 0 mm 3 mps 761 mmHg 44%
    05:00 +13°C° 0 mm 3 mps 761 mmHg 46%
    06:00 +13°C° 0 mm 4 mps 761 mmHg 49%
    07:00 +14°C° 0 mm 4 mps 761 mmHg 47%
    08:00 +17°C° 0 mm 4 mps 761 mmHg 45%
    09:00 +19°C° 0 mm 4 mps 761 mmHg 43%
    10:00 +20°C° 0 mm 5 mps 761 mmHg 38%
    11:00 +22°C° 0 mm 6 mps 761 mmHg 32%
    12:00 +24°C° 0 mm 6 mps 761 mmHg 26%
    13:00 +24°C° 0 mm 6 mps 760 mmHg 26%
    14:00 +24°C° 0 mm 6 mps 760 mmHg 26%
    15:00 +24°C° 0 mm 6 mps 759 mmHg 26%
    16:00 +23°C° 0 mm 5 mps 759 mmHg 30%
    17:00 +21°C° 0 mm 5 mps 759 mmHg 35%
    18:00 +19°C° 0 mm 4 mps 760 mmHg 40%
    19:00 +18°C° 0 mm 4 mps 760 mmHg 43%
    20:00 +16°C° 0 mm 3 mps 761 mmHg 47%
    21:00 +14°C° 0 mm 3 mps 761 mmHg 50%
    22:00 +14°C° 0 mm 3 mps 761 mmHg 52%
    23:00 +14°C° 0 mm 4 mps 761 mmHg 54%

    Day after tomorrow, 26 February, Wednesday

    Time Temperature Precipitation Wind Pressure Humidity
    00:00 +13°C° 0 mm 4 mps 761 mmHg 56%
    01:00 +13°C° 0 mm 4 mps 761 mmHg 60%
    02:00 +12°C° 0 mm 4 mps 761 mmHg 63%
    03:00 +12°C° 0 mm 4 mps 761 mmHg 67%
    04:00 +12°C° 0 mm 4 mps 761 mmHg 69%
    05:00 +11°C° 0 mm 3 mps 761 mmHg 71%
    06:00 +11°C° 0 mm 3 mps 761 mmHg 73%
    07:00 +12°C° 0 mm 4 mps 761 mmHg 68%
    08:00 +13°C° 0 mm 4 mps 762 mmHg 62%
    09:00 +14°C° 0 mm 4 mps 762 mmHg 57%
    10:00 +17°C° 0 mm 4 mps 762 mmHg 47%
    11:00 +19°C° 0 mm 4 mps 762 mmHg 38%
    12:00 +20°C° 0 mm 4 mps 762 mmHg 28%
    13:00 +20°C° 0 mm 4 mps 762 mmHg 27%
    14:00 +21°C° 0 mm 4 mps 761 mmHg 26%
    15:00 +21°C° 0 mm 4 mps 761 mmHg 25%
    16:00 +19°C° 0 mm 4 mps 761 mmHg 34%
    17:00 +16°C° 0 mm 3 mps 762 mmHg 44%
    18:00 +13°C° 0 mm 3 mps 762 mmHg 54%
    19:00 +13°C° 0 mm 3 mps 763 mmHg 57%
    20:00 +12°C° 0 mm 3 mps 763 mmHg 60%
    21:00 +11°C° 0 mm 3 mps 764 mmHg 63%
    22:00 +11°C° 0 mm 3 mps 764 mmHg 61%
    23:00 +10°C° 0 mm 3 mps 764 mmHg 60%

    27 February, Thursday

    Time Temperature Precipitation Wind Pressure Humidity
    00:00 +10°C° 0 mm 3 mps 765 mmHg 58%
    01:00 +10°C° 0 mm 3 mps 764 mmHg 57%
    02:00 +9°C° 0 mm 2 mps 764 mmHg 57%
    03:00 +9°C° 0 mm 2 mps 764 mmHg 56%
    04:00 +9°C° 0 mm 2 mps 764 mmHg 56%
    05:00 +8°C° 0 mm 2 mps 764 mmHg 56%
    06:00 +9°C° 0 mm 1 mps 764 mmHg 56%
    07:00 +11°C° 0 mm 1 mps 764 mmHg 52%
    08:00 +13°C° 0 mm 2 mps 764 mmHg 47%
    09:00 +15°C° 0 mm 2 mps 765 mmHg 43%
    10:00 +17°C° 0 mm 2 mps 764 mmHg 39%
    11:00 +19°C° 0 mm 3 mps 764 mmHg 36%
    12:00 +21°C° 0 mm 3 mps 764 mmHg 32%
    13:00 +21°C° 0 mm 4 mps 763 mmHg 34%
    14:00 +22°C° 0 mm 4 mps 762 mmHg 35%
    15:00 +22°C° 0 mm 5 mps 762 mmHg 37%
    16:00 +20°C° 0 mm 4 mps 762 mmHg 43%
    17:00 +18°C° 0 mm 3 mps 762 mmHg 50%
    18:00 +16°C° 0 mm 3 mps 762 mmHg 56%
    19:00 +16°C° 0 mm 3 mps 762 mmHg 55%
    20:00 +14°C° 0 mm 3 mps 763 mmHg 53%
    21:00 +14°C° 0 mm 3 mps 763 mmHg 52%
    22:00 +13°C° 0 mm 3 mps 763 mmHg 51%
    23:00 +13°C° 0 mm 3 mps 763 mmHg 51%

    28 February, Friday

    Time Temperature Precipitation Wind Pressure Humidity
    00:00 +13°C° 0 mm 3 mps 763 mmHg 50%
    01:00 +13°C° 0 mm 3 mps 763 mmHg 50%
    02:00 +13°C° 0 mm 3 mps 763 mmHg 49%
    03:00 +12°C° 0 mm 3 mps 763 mmHg 49%
    04:00 +12°C° 0 mm 3 mps 763 mmHg 48%
    05:00 +12°C° 0 mm 3 mps 763 mmHg 48%
    06:00 +12°C° 0 mm 3 mps 763 mmHg 47%
    07:00 +14°C° 0 mm 3 mps 763 mmHg 43%
    08:00 +17°C° 0 mm 2 mps 763 mmHg 40%
    09:00 +19°C° 0 mm 2 mps 763 mmHg 36%
    10:00 +20°C° 0 mm 2 mps 763 mmHg 33%
    11:00 +23°C° 0 mm 2 mps 762 mmHg 29%
    12:00 +25°C° 0 mm 2 mps 762 mmHg 25%
    13:00 +24°C° 0 mm 2 mps 761 mmHg 28%
    14:00 +24°C° 0 mm 3 mps 761 mmHg 31%
    15:00 +23°C° 0 mm 4 mps 760 mmHg 35%
    16:00 +21°C° 0 mm 3 mps 760 mmHg 42%
    17:00 +19°C° 0 mm 2 mps 760 mmHg 49%
    18:00 +16°C° 0 mm 1 mps 760 mmHg 56%
    19:00 +16°C° 0 mm 1 mps 760 mmHg 55%
    20:00 +16°C° 0 mm 1 mps 760 mmHg 55%
    21:00 +15°C° 0 mm 1 mps 760 mmHg 54%
    22:00 +15°C° 0 mm 2 mps 760 mmHg 52%
    23:00 +15°C° 0 mm 2 mps 760 mmHg 51%

    29 February, Saturday

    Time Temperature Precipitation Wind Pressure Humidity
    00:00 +14°C° 0 mm 3 mps 759 mmHg 50%
    01:00 +14°C° 0 mm 3 mps 759 mmHg 51%
    02:00 +14°C° 0 mm 4 mps 759 mmHg 51%
    03:00 +13°C° 0 mm 5 mps 758 mmHg 52%
    04:00 +13°C° 0 mm 5 mps 758 mmHg 54%
    05:00 +13°C° 0 mm 5 mps 758 mmHg 56%
    06:00 +13°C° 0 mm 5 mps 759 mmHg 58%
    07:00 +14°C° 0 mm 6 mps 759 mmHg 53%
    08:00 +16°C° 0 mm 6 mps 759 mmHg 49%
    09:00 +17°C° 0 mm 6 mps 759 mmHg 45%
    10:00 +20°C° 0 mm 6 mps 759 mmHg 40%
    11:00 +22°C° 0 mm 7 mps 759 mmHg 35%
    12:00 +24°C° 0 mm 7 mps 759 mmHg 30%
    13:00 +26°C° 0 mm 7 mps 758 mmHg 31%
    14:00 +26°C° 0 mm 7 mps 758 mmHg 31%
    15:00 +26°C° 0 mm 7 mps 757 mmHg 31%
    16:00 +23°C° 0 mm 7 mps 758 mmHg 35%
    17:00 +21°C° 0 mm 6 mps 758 mmHg 39%
    18:00 +20°C° 0 mm 5 mps 758 mmHg 44%
    19:00 +19°C° 0 mm 5 mps 758 mmHg 47%
    20:00 +17°C° 0 mm 5 mps 759 mmHg 50%
    21:00 +17°C° 0 mm 5 mps 759 mmHg 53%
    22:00 +17°C° 0 mm 5 mps 759 mmHg 56%
    23:00 +16°C° 0 mm 6 mps 759 mmHg 59%
    Show more